Hourly Data Report for October 11, 2013

All times are specified in Local Standard Time (LST). Add 1 hour to adjust for Daylight Saving Time where and when it is observed.

GRISE FIORD CLIMATE
NUNAVUT

76°25'22.040" N
82°54'08.020" W
44.50 m
2402351
71971
NGC

Download Data

Hourly Data (October 2013)
Hourly Data Report for October 11, 2013
Temp Definition
°C
Dew Point Temp Definition
°C
Rel Hum Definition
%
Wind Dir Definition
10's deg

Wind Spd Definition
km/h
Visibility Definition
km
Stn Press Definition
kPa
Hmdx Definition


Wind Chill Definition


Weather Definition


TIME
00:00 -11.4 -17.0 63 7 6   101.37   -15 LegendNANA
01:00 -11.7 -16.1 70 13 6   101.40   -15 LegendNANA
02:00 -12.6 -16.2 74 10 7   101.43   -17 LegendNANA
03:00 -11.3 -16.0 68 19 2   101.43   -13 LegendNANA
04:00 -13.2 -17.1 72 7 6   101.46   -17 LegendNANA
05:00 -12.5 -17.0 69 5 7   101.50   -17 LegendNANA
06:00 -11.9 -16.5 69 4 11   101.54   -18 LegendNANA
07:00 -11.0 -18.2 55 3 13   101.56   -17 LegendNANA
08:00 -12.6 -15.9 76 10 4   101.60   -15 LegendNANA
09:00 -12.5 -16.1 74 7 2   101.62   -14 LegendNANA
10:00 -10.3 -14.7 70 12 6   101.60   -14 LegendNANA
11:00 -8.8 -14.5 63 22 9   101.63   -13 LegendNANA
12:00 -9.4 -15.8 60 13 11   101.66   -15 LegendNANA
13:00 -9.9 -15.5 64 13 9   101.68   -15 LegendNANA
14:00 -9.2 -15.1 62 13 6   101.69   -13 LegendNANA
15:00 -11.2 -15.6 70 4 4   101.69   -14 LegendNANA
16:00 -11.7 -15.7 72 5 6   101.68   -15 LegendNANA
17:00 -11.9 -15.8 73 4 6   101.65   -16 LegendNANA
18:00 -11.2 -15.8 69 8 2   101.63   -12 LegendNANA
19:00 -10.1 -15.4 65 13 4   101.58   -12 LegendNANA
20:00 -8.5 -16.0 55 10 7   101.55   -12 LegendNANA
21:00 -8.4 -16.8 51 8 11   101.51   -14 LegendNANA
22:00 -9.3 -16.5 56 11 11   101.46   -15 LegendNANA
23:00 -8.9 -16.2 55 9 6   101.46   -12 LegendNANA

Notes on Data Quality.

Legend

  • E = Estimated
  • M = Missing
  • NA = Not Available
  • ‡ = Partner data that is not subject to review by the National Climate Archives
Date modified: